Wind_Speed
31 32 33 33 34 35 35 36 37 37 37 37 38 38 38 39 40 41 42 41 41 42 42 43 43 42 43 43 44 44 44 43 43 43 44 44 44 44 44 45 45 44 45
32 33 34 35 35 36 36 36 36 37 37 37 38 39 39 39 40 40 41 42 42 42 42 43 43 43 43 43 44 45 45 46 45 45 45 45 45 46 46 46 46 46 46
32 33 34 35 35 35 35 35 35 36 38 38 39 40 40 40 40 41 42 42 43 43 43 43 44 45 45 44 44 44 45 46 47 47 47 47 47 46 47 48 48 49 49
31 32 33 33 34 34 34 34 36 36 38 39 40 40 40 41 41 41 41 42 42 43 43 44 45 46 46 45 45 45 45 46 47 48 48 48 48 48 48 48 49 49 50
31 32 32 32 33 33 33 34 35 36 37 39 40 40 40 41 41 41 41 42 43 43 44 45 46 45 46 46 46 46 47 48 48 49 49 50 50 49 49 49 49 49 50
30 31 31 32 33 34 34 34 34 36 37 38 39 40 40 40 41 41 42 42 43 44 45 45 45 45 45 46 47 48 48 49 49 49 50 50 50 50 49 49 49 49 50
30 30 31 32 33 34 34 34 35 36 36 37 37 39 40 41 41 42 42 43 44 45 45 45 45 46 46 47 47 48 49 48 48 48 48 48 49 50 50 49 49 49 49
29 30 31 33 35 35 35 35 36 37 37 37 38 38 39 40 41 42 43 44 44 45 45 45 46 47 47 48 47 47 47 47 47 47 47 48 49 49 49 49 49 48 48
30 31 32 33 35 36 37 37 37 37 37 37 38 39 39 40 40 41 42 43 44 45 46 47 46 47 47 47 47 46 46 47 47 47 47 47 48 48 49 49 49 49 49
31 32 32 33 35 36 36 37 37 37 38 38 39 39 39 40 40 41 42 42 42 43 44 45 46 46 46 47 47 47 47 47 47 48 47 47 48 48 49 49 50 50 50
32 32 33 33 34 35 35 36 37 37 37 38 39 39 40 40 41 41 42 42 43 43 43 44 44 44 45 46 46 46 46 46 47 47 48 48 48 48 48 49 48 48 48
32 32 33 33 33 34 35 35 36 37 37 37 37 38 39 40 40 41 41 42 42 42 43 43 44 44 44 45 45 45 46 46 47 47 48 48 48 47 47 47 47 47 47
32 33 33 34 33 34 34 36 36 38 38 39 38 38 39 40 40 40 41 41 42 42 43 43 43 43 44 44 44 45 45 46 46 47 47 47 47 47 47 47 47 46 46
32 33 34 34 34 34 35 36 37 37 38 38 38 38 39 39 40 40 40 41 41 41 42 42 42 42 43 43 43 44 44 45 45 46 46 46 46 47 47 46 45 45 45
32 33 34 34 35 35 35 37 38 38 38 38 38 38 38 39 39 39 39 40 40 40 40 40 41 41 41 42 43 43 43 43 44 44 44 45 45 45 45 45 44 44 44
32 33 33 34 34 35 36 37 38 38 38 37 38 38 38 38 39 39 38 38 38 38 39 39 40 40 40 40 41 41 42 42 42 42 43 43 43 43 43 43 43 43 43
32 32 33 33 33 34 35 36 36 37 37 37 37 37 37 37 38 38 37 37 37 37 37 37 38 39 39 39 40 40 41 41 40 40 40 40 41 41 41 41 41 41 41
30 31 31 32 33 33 34 35 35 35 35 35 35 35 35 35 35 35 35 36 36 35 35 36 37 37 37 37 37 37 37 37 38 38 39 39 39 39 39 39 39 39 40
29 29 30 30 31 32 31 32 32 32 32 32 32 32 32 32 32 32 32 33 34 34 34 34 34 34 35 35 35 35 35 36 36 36 36 36 37 37 37 37 37 38 38
27 28 28 28 29 29 29 29 29 29 29 29 29 30 29 30 30 30 30 30 31 31 31 31 32 33 33 33 33 34 34 34 34 35 35 35 34 34 34 35 35 35 36
27 27 27 27 27 27 27 26 26 26 26 27 27 27 27 27 27 28 28 28 29 29 29 30 30 31 31 31 31 32 32 33 33 33 33 33 33 33 33 33 33 33 33
26 26 26 26 26 26 25 25 25 25 25 25 25 26 25 25 26 26 26 26 27 28 28 29 30 30 30 30 30 31 31 31 31 31 31 31 31 31 31 31 31 31 31
25 26 26 25 25 25 25 24 24 24 24 25 24 25 25 25 24 24 24 24 25 26 27 28 28 28 29 29 29 29 29 29 29 28 28 28 28 29 30 30 30 29 29
24 24 24 24 25 24 24 24 24 24 23 24 24 25 25 23 22 23 23 24 24 25 25 26 26 26 27 27 27 26 26 27 26 26 26 26 26 27 27 28 27 26 26
23 23 23 24 24 24 24 24 23 23 23 23 24 24 24 23 23 23 22 23 24 24 24 23 24 24 24 25 25 25 25 25 25 25 25 25 25 25 25 24 24 24 24
23 23 23 23 24 24 24 24 23 23 23 23 22 22 22 22 22 21 21 22 22 23 23 23 23 23 23 23 23 23 23 22 22 22 22 22 22 22 22 22 23 23 23
Wind_Direction
265 263 262 261 261 262 261 260 259 259 259 259 259 260 260 260 260 259 258 259 259 259 258 258 259 258 257 258 260 260 261 262 262 263 264 265 266 267 267 268 269 269 269
265 263 263 262 262 262 261 260 259 258 258 259 261 262 261 261 261 261 260 261 260 260 259 257 258 258 258 259 261 261 261 262 263 264 265 266 266 267 268 268 269 270 270
266 264 263 263 262 262 260 259 259 258 258 259 262 263 263 263 263 263 262 261 261 261 260 260 258 258 259 260 261 262 262 262 263 264 265 266 266 267 268 269 269 270 270
266 264 263 262 261 261 260 259 259 259 259 260 261 263 264 264 264 264 264 263 262 262 261 260 261 261 261 261 262 263 264 264 265 265 265 266 267 267 268 269 269 270 270
267 264 263 262 261 260 259 260 260 261 262 262 263 264 264 265 264 264 263 263 263 263 263 262 262 262 262 263 263 263 265 266 266 266 266 266 267 267 268 268 269 269 270
266 264 263 263 262 260 260 260 262 262 263 264 265 264 264 264 264 264 264 263 264 264 265 265 263 263 264 264 264 265 265 265 266 266 266 266 266 267 268 268 268 269 270
268 265 264 263 262 261 262 262 262 262 264 265 265 265 265 265 265 264 264 264 265 265 265 265 264 264 264 265 265 265 266 266 266 266 266 266 267 268 269 269 269 270 270
269 266 265 265 263 263 263 263 263 263 264 265 266 265 266 266 265 265 265 265 265 264 265 266 266 266 266 266 265 265 265 266 267 268 267 267 268 268 269 269 270 270 270
270 268 267 266 265 266 265 264 264 264 265 266 266 266 266 267 266 266 266 266 266 265 264 266 267 267 266 265 265 265 266 267 268 268 268 268 267 268 269 270 270 271 271
274 273 271 270 268 269 266 265 266 267 267 269 268 267 267 267 267 266 267 266 266 266 266 267 267 267 266 266 266 266 267 268 268 268 268 267 268 269 269 270 270 271 271
278 277 274 274 271 271 269 268 268 268 268 269 269 269 269 269 269 268 267 266 265 266 266 267 267 267 267 266 267 268 269 269 269 268 268 268 268 268 269 269 269 270 271
279 278 276 275 273 271 269 269 268 268 268 270 270 269 270 270 271 270 268 267 266 266 267 268 267 267 267 267 267 268 269 269 269 268 268 268 268 268 268 268 269 270 271
280 280 278 277 276 272 271 271 270 269 269 270 270 270 270 270 271 271 269 268 267 267 267 268 267 266 266 266 267 267 268 268 269 269 269 268 268 268 268 268 268 269 270
281 280 279 278 277 276 273 272 272 272 271 271 271 271 271 271 271 270 269 268 269 269 268 267 267 266 266 266 267 268 269 269 270 269 269 268 268 268 268 268 268 269 269
281 281 280 279 279 278 276 274 274 274 273 273 272 272 272 271 270 269 268 268 269 269 269 268 268 268 267 267 268 269 270 271 271 270 269 268 268 269 269 268 267 268 269
281 281 280 279 279 278 277 276 275 275 274 273 272 272 273 272 271 269 268 268 269 269 269 268 268 267 268 268 269 270 270 271 271 270 269 269 269 269 269 268 268 268 269
282 281 280 280 279 279 279 278 276 274 274 273 272 271 272 272 271 269 267 267 269 269 270 269 268 268 268 268 269 270 271 271 271 271 270 269 269 269 269 268 269 269 269
284 282 281 282 281 281 281 279 277 275 274 274 272 272 272 272 271 269 268 268 269 270 270 270 270 269 269 269 270 270 271 271 271 271 270 270 270 270 269 268 269 269 270
286 284 283 283 283 283 283 281 278 276 274 273 272 272 272 272 270 270 270 269 268 269 270 270 269 269 270 270 270 271 272 272 272 272 271 271 271 270 270 269 269 269 269
286 285 285 285 285 285 284 282 279 276 274 273 272 272 271 271 271 270 271 269 269 271 271 271 270 270 271 271 271 271 272 272 273 272 271 270 270 270 269 269 269 269 270
286 286 285 286 286 284 282 281 280 277 275 274 274 274 273 273 272 273 272 271 271 271 271 272 271 270 270 271 272 273 273 273 273 272 271 270 268 268 269 269 269 270 270
286 286 287 288 287 286 284 283 281 279 278 276 275 275 275 276 275 273 273 273 272 271 271 272 272 271 270 271 272 273 273 273 272 271 270 269 267 267 267 268 269 270 270
284 285 286 287 286 285 284 284 283 281 279 277 276 276 277 277 274 273 273 274 274 274 273 272 272 272 272 272 273 273 273 273 272 270 269 269 268 267 266 266 268 269 270
285 286 287 287 286 284 284 284 283 281 279 277 275 275 276 275 273 273 273 274 275 276 275 273 273 274 273 272 273 273 273 272 271 269 269 269 268 268 267 267 267 269 270
286 285 286 286 285 284 284 284 284 282 279 277 276 274 273 273 273 274 275 275 276 277 276 274 275 275 274 274 273 273 273 271 270 269 268 269 268 268 268 268 268 268 269
285 285 285 285 284 283 283 284 284 283 280 278 276 273 271 272 274 275 277 277 278 278 276 274 274 275 275 275 274 273 272 270 269 269 269 270 270 269 268 267 267 267 267
Height
5711 5712 5712 5713 5713 5714 5715 5715 5716 5717 5717 5718 5719 5719 5719 5720 5720 5721 5722 5723 5725 5726 5728 5729 5731 5733 5734 5735 5736 5737 5738 5739 5740 5740 5741 5741 5741 5741 5741 5741 5741 5742 5742
5703 5703 5703 5703 5704 5705 5705 5706 5707 5707 5708 5709 5710 5710 5710 5710 5710 5711 5712 5713 5714 5716 5717 5719 5721 5722 5723 5724 5726 5726 5727 5728 5729 5729 5729 5730 5731 5730 5730 5730 5730 5730 5730
5694 5694 5694 5694 5694 5695 5696 5697 5697 5698 5699 5700 5700 5700 5700 5700 5701 5701 5702 5703 5704 5705 5707 5708 5710 5711 5712 5714 5715 5715 5716 5717 5717 5717 5718 5718 5719 5719 5719 5718 5718 5717 5718
5684 5684 5684 5685 5685 5686 5687 5688 5688 5689 5689 5690 5690 5690 5690 5691 5691 5692 5692 5693 5694 5695 5696 5697 5699 5700 5701 5702 5703 5704 5704 5705 5706 5706 5706 5706 5706 5706 5707 5707 5705 5705 5705
5675 5675 5675 5676 5676 5677 5678 5679 5679 5679 5680 5680 5680 5680 5680 5681 5681 5682 5682 5683 5684 5685 5685 5686 5688 5688 5690 5691 5691 5692 5693 5693 5693 5693 5694 5694 5694 5693 5694 5694 5694 5693 5692
5666 5666 5667 5667 5667 5668 5669 5669 5670 5670 5670 5670 5670 5670 5670 5671 5671 5671 5672 5673 5673 5674 5675 5675 5676 5677 5678 5679 5679 5680 5681 5681 5681 5681 5681 5681 5681 5681 5681 5681 5681 5681 5680
5657 5658 5658 5658 5658 5659 5659 5660 5660 5660 5661 5660 5660 5660 5660 5660 5660 5661 5661 5662 5662 5663 5663 5664 5665 5665 5666 5666 5667 5667 5668 5668 5668 5668 5668 5668 5668 5668 5668 5668 5668 5668 5667
5649 5649 5649 5649 5649 5650 5650 5650 5650 5650 5651 5651 5650 5650 5649 5649 5649 5650 5650 5650 5651 5651 5652 5652 5653 5653 5654 5654 5654 5654 5655 5655 5655 5655 5655 5655 5655 5655 5655 5655 5655 5655 5655
5641 5640 5640 5640 5640 5640 5640 5640 5640 5640 5640 5640 5640 5640 5639 5639 5638 5638 5639 5639 5639 5640 5640 5640 5641 5641 5641 5641 5641 5642 5642 5642 5642 5643 5643 5643 5643 5643 5643 5642 5642 5642 5642
5633 5632 5631 5631 5631 5630 5630 5630 5630 5630 5630 5630 5629 5629 5629 5628 5628 5627 5627 5628 5628 5628 5629 5629 5629 5629 5629 5629 5629 5629 5629 5630 5630 5630 5630 5630 5630 5630 5630 5630 5629 5629 5628
5624 5623 5622 5621 5621 5621 5620 5620 5620 5620 5619 5619 5619 5618 5617 5617 5616 5616 5616 5616 5616 5616 5617 5616 5616 5616 5616 5616 5616 5616 5617 5617 5617 5616 5616 5617 5617 5617 5617 5617 5616 5616 5616
5615 5614 5613 5612 5612 5611 5610 5610 5609 5609 5609 5608 5608 5607 5607 5606 5605 5604 5604 5604 5604 5604 5604 5604 5604 5604 5604 5604 5604 5604 5604 5604 5604 5604 5604 5604 5604 5604 5604 5604 5604 5604 5603
5606 5605 5604 5603 5602 5601 5601 5600 5599 5599 5598 5598 5597 5596 5595 5595 5594 5593 5592 5592 5592 5592 5592 5592 5592 5592 5592 5592 5592 5592 5592 5592 5592 5591 5591 5591 5591 5591 5591 5591 5591 5591 5591
5597 5596 5595 5594 5593 5592 5591 5590 5589 5588 5588 5587 5586 5585 5584 5583 5582 5581 5581 5581 5581 5581 5581 5581 5581 5581 5581 5581 5581 5580 5580 5580 5580 5579 5579 5578 5578 5578 5578 5578 5578 5578 5579
5588 5586 5585 5584 5583 5582 5581 5580 5579 5578 5577 5576 5575 5574 5573 5572 5571 5570 5570 5570 5569 5569 5569 5569 5569 5569 5569 5569 5569 5569 5568 5568 5568 5567 5566 5566 5566 5565 5565 5566 5566 5566 5566
5579 5577 5576 5575 5573 5572 5571 5569 5568 5567 5566 5565 5564 5563 5562 5561 5560 5559 5559 5559 5559 5558 5558 5558 5558 5558 5558 5558 5558 5557 5557 5556 5556 5555 5555 5554 5554 5554 5553 5554 5554 5554 5554
5570 5568 5566 5565 5563 5562 5560 5558 5557 5556 5555 5553 5553 5552 5550 5550 5549 5548 5548 5548 5548 5548 5548 5548 5547 5547 5547 5547 5546 5546 5545 5545 5544 5544 5543 5543 5543 5542 5542 5542 5542 5542 5542
5560 5558 5557 5555 5553 5551 5549 5548 5546 5545 5544 5543 5542 5541 5540 5539 5539 5538 5538 5538 5538 5538 5538 5537 5537 5537 5537 5537 5536 5535 5534 5534 5533 5533 5532 5532 5532 5532 5531 5531 5531 5532 5532
5551 5549 5547 5546 5543 5541 5539 5537 5536 5534 5533 5532 5532 5531 5530 5530 5529 5529 5529 5528 5528 5528 5528 5528 5527 5527 5527 5526 5526 5525 5524 5524 5523 5523 5522 5522 5522 5521 5521 5521 5521 5521 5521
5543 5541 5539 5537 5535 5532 5530 5528 5527 5525 5524 5523 5523 5522 5521 5521 5520 5520 5520 5519 5519 5519 5519 5518 5518 5518 5517 5517 5516 5515 5515 5514 5514 5513 5512 5512 5512 5512 5511 5511 5511 5511 5511
5534 5532 5530 5528 5526 5524 5522 5520 5519 5517 5516 5515 5514 5514 5513 5513 5512 5511 5511 5511 5511 5510 5510 5510 5509 5508 5508 5508 5507 5506 5505 5504 5504 5503 5503 5503 5503 5503 5502 5502 5501 5501 5501
5526 5524 5522 5521 5519 5517 5515 5513 5512 5510 5509 5508 5507 5506 5506 5505 5504 5504 5503 5503 5502 5502 5501 5501 5500 5499 5499 5499 5498 5497 5496 5495 5494 5494 5494 5493 5493 5493 5493 5492 5492 5492 5491
5519 5517 5515 5513 5512 5510 5508 5506 5505 5503 5502 5501 5500 5499 5498 5498 5497 5496 5496 5495 5494 5494 5493 5492 5492 5491 5490 5490 5489 5488 5487 5486 5486 5485 5485 5485 5484 5484 5483 5483 5483 5483 5483
5511 5510 5508 5506 5505 5503 5501 5499 5498 5496 5495 5494 5493 5492 5491 5490 5490 5489 5488 5488 5487 5486 5485 5484 5484 5483 5482 5481 5481 5480 5479 5478 5478 5478 5477 5476 5476 5475 5475 5475 5475 5474 5474
5504 5502 5501 5499 5498 5496 5494 5493 5491 5490 5488 5487 5486 5485 5484 5484 5483 5482 5481 5481 5480 5479 5478 5477 5476 5475 5474 5473 5473 5472 5471 5471 5471 5470 5470 5469 5468 5467 5467 5467 5467 5467 5467
5497 5495 5494 5492 5491 5489 5488 5486 5484 5483 5481 5480 5479 5478 5478 5477 5476 5475 5475 5474 5473 5471 5470 5469 5468 5468 5467 5465 5465 5464 5463 5463 5463 5463 5463 5462 5461 5461 5461 5461 5461 5461 5461